This demonstration page uses our WeatherBlox Daily Observations layout. Learn more.

Hourly Observations for May 29, 2019

Temp ( °F °C ) Dew Point ( °F °C ) Humidity (%) Winds ( mph kmh ) Pressure ( in mb ) Visibility ( mi km ) Precip ( " mm )
12:54 am 00:54 Cloudy 59 15 56 13.3 90 90 NE 7 11 29.68 1005 10 16.0934 0 0
1:51 am 01:51 Cloudy with Mist and Fog 57 14 55 13 94 94 N 3 6 29.69 1006 3 4.82802 0 0
1:54 am 01:54 Cloudy with Mist and Fog 58 14.4 57 13.9 97 97 N 5 7 29.68 1005 3 4.82802 0 0
2:31 am 02:31 Cloudy with Mist and Fog 58 14.4 56 13.3 93 93 NNE 6 9 29.67 1005 2.5 4.02335 0 0
2:54 am 02:54 Cloudy with Mist and Fog 58 14.4 56 13.3 93 93 NNE 6 9 29.66 1005 1.75 2.816345 0 0
3:54 am 03:54 Cloudy with Light Rain 58 14.4 57 13.9 97 97 NW 7 11 29.69 1005 1.75 2.816345 0 0.0254
4:25 am 04:25 Cloudy with Mist and Fog 58 14.4 56 13.3 93 93 NW 6 9 29.69 1005 2 3.21868 0.01 0.254
4:43 am 04:43 Cloudy with Mist and Fog 58 14.4 57 13.9 97 97 NW 7 11 29.69 1005 3 4.82802 0.01 0.254
4:54 am 04:54 Cloudy with Mist and Fog 58 14.4 56 13.3 93 93 WNW 3 6 29.69 1005 4 6.43736 0.01 0.254
5:42 am 05:42 Cloudy 58 14.4 56 13.3 93 93 WNW 5 7 29.7 1006 10 16.0934 0 0
5:54 am 05:54 Cloudy 58 14.4 56 13.3 93 93 W 3 6 29.7 1006 9 14.48406 0 0
6:02 am 06:02 Cloudy 58 14.4 56 13.3 93 93 WNW 3 6 29.71 1006 9 14.48406 0 0
6:13 am 06:13 Cloudy 58 14.4 56 13.3 93 93 W 5 7 29.71 1006 10 16.0934 0 0
6:39 am 06:39 Cloudy 58 14.4 56 13.3 93 93 WNW 3 6 29.71 1006 10 16.0934 0 0
6:41 am 06:41 Cloudy 58 14.4 56 13.3 93 93 WNW 3 6 29.71 1006 10 16.0934 0 0
6:54 am 06:54 Cloudy 58 14.4 56 13.3 93 93 W 7 11 29.72 1006 10 16.0934 0 0
7:21 am 07:21 Cloudy 58 14.4 56 13.3 93 93 W 8 13 29.73 1007 10 16.0934 0 0
7:45 am 07:45 Cloudy 59 15 56 13.3 90 90 W 7 11 29.74 1007 8 12.87472 0 0
7:54 am 07:54 Cloudy 59 15 56 13.3 90 90 W 6 9 29.74 1007 10 16.0934 0 0
8:02 am 08:02 Cloudy 59 15 56 13.3 90 90 W 8 13 29.74 1007 10 16.0934 0 0
8:11 am 08:11 Cloudy 59 15 56 13.3 90 90 W 9 15 29.74 1007 10 16.0934 0 0
8:19 am 08:19 Cloudy 60 15.6 56 13.3 86 86 W 10 17 29.74 1007 10 16.0934 0 0
8:28 am 08:28 Cloudy 60 15.6 56 13.3 86 86 W 10 17 29.74 1007 10 16.0934 0 0
8:54 am 08:54 Cloudy 60 15.6 55 12.8 84 84 NW 8 13 29.75 1008 10 16.0934 0 0
9:07 am 09:07 Mostly Cloudy 62 16.7 55 12.8 78 78 W 8 13 29.75 1007 10 16.0934 0 0
9:25 am 09:25 Partly Cloudy 62 16.7 55 12.8 78 78 W 12 19 29.75 1007 10 16.0934 0 0
9:35 am 09:35 Mostly Cloudy 62 16.7 55 12.8 78 78 W 12 19 29.76 1008 10 16.0934 0 0
9:43 am 09:43 Partly Cloudy 63 17.2 55 12.8 76 76 W 13 20 29.76 1008 10 16.0934 0 0
9:51 am 09:51 Mostly Cloudy 63 17 55 13 77 77 W 14 22 29.76 1008 10 16.0934 0 0
9:54 am 09:54 Mostly Cloudy 63 17.2 54 12.2 73 73 W 13 20 29.76 1008 10 16.0934 0 0
10:54 am 10:54 Cloudy 65 18.3 54 12.2 68 68 W 15 24 29.77 1008 10 16.0934 0 0
11:54 am 11:54 Cloudy 66 18.9 55 12.8 68 68 W 14 22 29.78 1008 10 16.0934 0 0
12:54 pm 12:54 Cloudy 67 19.4 55 12.8 66 66 NW 13 20 29.76 1008 10 16.0934 0 0
1:54 pm 13:54 Mostly Cloudy 68 20 54 12.2 61 61 NW 14 22 29.75 1007 10 16.0934 0 0
2:20 pm 14:20 Mostly Cloudy 68 20 54 12.2 61 61 NW 13 20 29.75 1007 10 16.0934 0 0
2:27 pm 14:27 Mostly Cloudy 70 21.1 55 12.8 59 59 WNW 12 19 29.74 1007 9 14.48406 0 0
2:37 pm 14:37 Mostly Cloudy 67 19.4 53 11.7 61 61 WNW 14 22 29.76 1008 9 14.48406 0 0
2:45 pm 14:45 Mostly Cloudy 68 20 54 12.2 61 61 WNW 14 22 29.76 1008 10 16.0934 0 0
2:54 pm 14:54 Mostly Cloudy 67 19.4 53 11.7 61 61 NW 12 19 29.77 1008 10 16.0934 0 0
3:54 pm 15:54 Cloudy 67 19.4 53 11.7 61 61 WNW 13 20 29.75 1008 10 16.0934 0 0
4:54 pm 16:54 Cloudy 68 20 52 11.1 57 57 WNW 13 20 29.78 1008 10 16.0934 0 0
5:54 pm 17:54 Cloudy 66 18.9 52 11.1 61 61 WNW 14 22 29.77 1008 10 16.0934 0 0
6:54 pm 18:54 Cloudy 67 19.4 53 11.7 61 61 WNW 14 22 29.76 1008 10 16.0934 0 0
7:54 pm 19:54 Cloudy 64 17.8 52 11.1 65 65 NW 12 19 29.79 1009 10 16.0934 0 0
8:54 pm 20:54 Cloudy 62 16.7 53 11.7 73 73 WNW 9 15 29.8 1009 10 16.0934 0 0
9:54 pm 21:54 Cloudy 61 16.1 53 11.7 75 75 WNW 9 15 29.82 1010 10 16.0934 0 0
10:54 pm 22:54 Cloudy 60 15.6 53 11.7 78 78 NW 7 11 29.82 1010 10 16.0934 0 0
11:54 pm 23:54 Cloudy 60 15.6 53 11.7 78 78 W 5 7 29.81 1010 10 16.0934 0 0

Powered by AerisWeather